SCP
0 0 0 0 0 0 0 0 0 0 0 0 0 0 0 0 0 0 0 0 0 0 0 0 0 0 0 0 0 0 0 0 0 0 0 0 0 0 0 0 0 0 0
0 0 0 0 0 0 0 0 0 0 0 0 0 0 0 0 0 0 0 0 0 0 0 0 0 0 0 0 0 0 0 0 0 0 0 0 0 0 0 0 0 0 0
0 0 0 0 0 0 0 0 0 0 0 0 0 0 0 0 0 0 0 0 0 0 0 0 0 0 0 0 0 0 0 0 0 0 0 0 0 0 0 0 0 0 0
0 0 0 0 0 0 0 0 0 0 0 0 0 0 0 0 0 0 0 0 0 0 0 0 0 0 0 0 0 0 0 0 0 0 0 0 0 0 0 0 0 0 0
0 0 0 0 0 0 0 0 0 0 0 0 0 0 0 0 0 0 0 0 0 0 0 0 0 0 0 0 0 0 0 0 0 0 0 0 0 0 0 0 0 0 0
0 0 0 0 0 0 0 0 0 0 0 0 0 0 0 0 0 0 0 0 0 0 0 0 0 0 0 0 0 0 0 0 0 0 0 0 0 0 0 0 0 0 0
0 0 0 0 0 0 0 0 0 0 0 0 0 0 0 0 0 0 0 0 0 0 0 0 0 0 0 0 0 0 0 0 0 0 0 0 0 0 0 0 0 0 0
0 0 0 0 0 0 0 0 0 0 0 0 0 0 0 0 0 0 0 0 0 0 0 0 0 0 0 0 0 0 0 0 0 0 0 0 0 0 0 0 0 0 0
0 0 0 0 0 0 0 0 0 0 0 0 0 0 0 0 0 0 0 0 0 0 0 0 0 0 0 0 0 0 0 0 0 0 0 0 0 0 0 0 0 0 0
0 0 0 0 0 0 0 0 0 0 0 0 0 0 0 0 0 0 0 0 0 0 0 0 0 0 0 0 0 0 0 0 0 0 0 0 0 0 0 0 0 0 0
0 0 0 0 0 0 0 0 0 0 0 0 0 0 0 0 0 0 0 0 0 0 0 0 0 0 0 0 0 0 0 0 0 0 0 0 0 0 0 0 0 0 0
0 0 0 0 0 0 0 0 0 0 0 0 0 0 0 0 0 0 0 0 0 0 0 0 0 0 0 0 0 0 0 0 0 0 0 0 0 0 0 0 0 0 0
0 0 0 0 0 0 0 0 0 0 0 0 0 0 0 0 0 0 0 0 0 0 0 0 0 0 0 0 0 0 0 0 0 0 0 0 0 0 0 0 0 0 0
0 0 0 0 0 0 0 0 0 0 0 0 0 0 0 0 0 0 0 0 0 0 0 0 0 0 0 0 0 0 0 0 0 0 0 0 0 0 0 0 0 0 0
0 0 0 0 0 0 0 0 0 0 0 0 0 0 0 0 0 0 0 0 0 0 0 0 0 0 0 0 0 0 0 0 0 0 0 0 0 0 0 0 0 0 0
0 0 0 0 0 0 0 0 0 0 0 0 0 0 0 0 0 0 0 0 0 0 0 0 0 0 0 0 0 0 0 0 0 0 0 0 0 0 0 0 0 0 0
0 0 0 0 0 0 0 0 0 0 0 0 0 0 0 0 0 0 0 0 0 0 0 0 0 0 0 0 0 0 0 0 0 0 0 0 0 0 0 0 0 0 0
0 0 0 0 0 0 0 0 0 0 0 0 0 0 0 0 0 0 0 0 0 0 0 0 0 0 0 0 0 0 0 0 0 0 0 0 0 0 0 0 0 0 0
0 0 0 0 0 0 0 0 0 0 0 0 0 0 0 0 0 0 0 0 0 0 0 0 0 0 0 0 0 0 0 0 0 0 0 0 0 0 0 0 0 0 0
0 0 0 0 0 0 0 0 0 0 0 0 0 0 0 0 0 0 0 0 0 0 0 0 0 0 0 0 0 0 0 0 0 0 0 0 0 0 0 0 0 0 0
0 0 0 0 0 0 0 0 0 0 0 0 0 0 0 0 0 0 0 0 0 0 0 0 0 0 0 0 0 0 0 0 0 0 0 0 0 0 0 0 0 0 0
0 0 0 0 0 0 0 0 0 0 0 0 0 0 0 0 0 0 0 0 0 0 0 0 0 0 0 0 0 0 0 0 0 0 0 0 0 0 0 0 0 0 0
0 0 0 0 0 0 0 0 0 0 0 0 0 0 0 0 0 0 0 0 0 0 0 0 0 0 0 0 0 0 0 0 0 0 0 0 0 0 0 0 0 0 0
0 0 0 0 0 0 0 0 0 0 0 0 0 0 0 0 0 0 0 0 0 0 0 0 0 0 0 0 0 0 0 0 0 0 0 0 0 0 0 0 0 0 0
0 0 0 0 0 0 0 0 0 0 0 0 0 0 0 0 0 0 0 0 0 0 0 0 0 0 0 0 0 0 0 0 0 0 0 0 0 0 0 0 0 0 0
0 0 0 0 0 0 0 0 0 0 0 0 0 0 0 0 0 0 0 0 0 0 0 0 0 0 0 0 0 0 0 0 0 0 0 0 0 0 0 0 0 0 0
Wind_Speed
6 6 5 5 5 4 4 4 4 4 4 3 3 2 2 2 1 2 3 6 6 3 2 3 4 4 4 3 2 1 2 3 3 2 3 3 4 4 4 5 5 5 5
5 5 5 5 4 4 4 4 4 3 2 2 1 1 1 0 1 2 3 4 5 4 2 2 2 3 2 1 0 1 2 2 3 3 3 4 4 4 5 5 5 5 5
6 5 4 4 3 4 4 3 2 2 2 1 1 1 0 1 1 1 2 2 2 3 2 1 1 2 1 0 1 2 2 3 3 4 4 4 4 5 5 6 6 6 6
7 5 4 4 4 3 3 2 2 1 1 1 1 1 1 1 1 1 2 2 2 2 1 1 1 2 1 1 2 3 3 3 3 4 4 5 5 6 6 7 7 6 6
7 5 4 4 4 3 3 2 2 2 2 1 1 1 1 1 1 2 2 3 3 3 2 2 3 3 3 3 3 3 4 4 4 4 4 5 6 6 7 7 6 6 6
7 5 4 5 5 3 3 2 3 2 2 2 1 1 1 1 2 2 2 2 3 3 3 2 2 3 4 5 4 4 4 4 3 4 5 5 6 6 7 7 7 6 5
6 5 5 5 4 4 4 4 3 3 2 1 1 0 1 1 2 2 2 2 3 3 3 3 3 2 2 6 6 5 4 4 3 3 4 5 6 7 7 7 7 6 5
6 5 6 5 4 4 4 4 4 3 2 2 2 1 1 1 1 2 2 2 3 3 3 4 3 3 3 2 5 7 6 5 4 4 4 5 6 7 7 7 7 7 6
5 5 5 5 5 4 4 4 4 5 3 3 2 3 2 2 1 1 2 3 3 3 3 3 4 3 3 3 3 5 7 6 6 5 5 5 6 7 8 8 8 8 8
5 5 5 5 5 4 4 4 4 4 4 3 2 2 2 2 2 1 1 1 3 3 3 3 3 3 3 3 4 6 7 7 6 6 6 7 8 9 9 9 9 9 9
4 4 4 4 5 4 4 4 4 4 3 4 3 2 2 1 2 2 2 2 1 2 3 3 3 3 3 3 3 4 6 6 7 7 7 8 9 9 9 9 9 10 10
3 4 4 4 4 4 5 4 4 4 4 4 3 3 3 2 3 3 3 2 2 1 2 3 3 3 2 3 4 5 5 6 7 7 8 9 10 10 9 9 9 9 10
3 5 4 4 4 4 4 4 4 4 4 4 4 3 2 2 2 2 2 2 1 1 2 2 2 3 2 2 2 4 5 6 7 7 8 9 9 9 9 9 9 9 10
4 5 5 4 4 4 4 4 3 3 3 4 4 4 3 2 2 2 2 2 1 1 2 2 2 3 3 2 2 3 3 6 6 7 8 8 9 9 9 9 9 9 9
4 5 5 5 4 5 5 5 3 3 3 3 4 4 3 3 2 2 2 3 4 3 2 2 2 2 3 3 2 2 2 4 5 6 7 7 8 8 8 8 9 9 9
4 5 5 5 5 5 5 5 4 4 4 3 3 4 3 3 3 2 2 2 2 3 2 1 2 2 3 3 3 2 2 4 4 5 6 5 6 6 7 8 8 8 9
4 5 5 5 6 6 6 5 5 6 6 5 4 5 4 4 3 3 2 2 2 2 2 1 1 2 3 3 2 1 1 1 2 4 4 4 4 5 6 7 7 8 8
4 4 5 5 5 6 6 6 6 6 6 7 7 6 6 4 4 4 3 3 3 3 3 2 1 2 2 3 2 1 1 1 1 3 3 3 3 4 5 6 6 7 8
2 3 4 5 5 6 6 6 6 6 6 6 7 7 7 7 6 4 4 4 3 2 2 2 2 2 1 2 2 1 1 0 1 2 2 2 2 3 4 5 6 7 7
1 2 3 4 5 5 6 6 6 6 6 6 6 6 7 7 7 7 5 4 4 3 3 3 3 2 2 2 2 2 2 1 1 1 1 1 1 1 2 4 5 5 6
1 2 3 3 4 4 5 6 6 7 6 6 5 5 5 6 7 7 5 5 5 4 3 3 3 3 3 3 3 3 2 2 1 1 1 1 1 0 1 2 4 4 5
1 2 2 3 4 3 6 9 7 6 6 7 6 5 5 6 8 9 8 8 7 6 5 4 3 4 4 4 3 3 3 2 2 1 1 1 1 1 1 1 2 3 4
2 2 3 3 4 5 9 10 10 6 6 7 7 6 5 6 8 6 7 8 6 6 6 4 4 4 4 5 5 4 3 3 3 2 2 1 1 1 1 1 2 2 3
3 3 3 3 4 5 9 11 11 6 6 6 7 8 7 7 8 8 6 5 4 4 4 3 2 2 3 4 5 5 4 3 2 1 2 2 1 1 1 1 1 2 2
4 3 3 4 4 5 9 11 11 5 5 6 7 7 8 8 13 14 8 6 5 3 4 5 5 5 6 7 6 4 4 3 2 2 1 2 1 1 1 1 1 2 1
4 4 4 5 5 6 9 12 12 5 6 6 5 7 11 11 14 15 9 8 7 5 5 4 3 4 3 4 6 5 5 4 3 2 2 2 2 2 0 1 1 1 1
Wind_Direction
152 155 162 167 175 175 168 184 211 201 202 193 200 209 208 214 187 136 143 162 162 177 238 279 291 292 281 275 270 301 335 332 325 312 304 296 297 309 318 321 323 324 325
156 158 159 167 173 166 167 191 206 185 182 169 195 220 233 241 82 101 136 165 170 177 210 265 294 308 310 299 155 67 47 16 9 360 346 334 312 299 298 302 303 306 307
157 158 156 165 167 161 169 189 197 163 165 159 202 221 154 54 44 50 111 132 157 179 186 243 280 302 303 4 76 71 53 41 30 26 12 353 334 314 300 297 297 292 297
160 160 156 167 161 156 166 174 166 150 153 157 192 206 139 107 53 48 70 85 99 110 128 92 57 26 38 95 89 72 49 52 51 39 24 11 359 343 324 308 299 295 290
163 161 160 165 158 157 164 169 158 150 165 179 192 167 124 121 146 91 77 82 82 83 91 102 86 62 58 78 88 73 57 60 56 44 23 10 2 350 342 330 316 304 299
165 161 162 165 158 155 160 165 167 164 161 167 170 156 183 176 137 110 100 94 93 83 71 86 87 69 63 68 71 66 57 52 52 44 30 16 7 1 355 348 336 319 309
171 165 165 164 159 161 166 167 163 167 171 132 102 283 264 198 146 136 120 101 101 92 78 70 71 71 66 64 56 51 40 29 23 20 13 7 2 357 354 351 351 342 334
172 169 164 161 159 159 167 170 163 155 164 151 148 153 215 292 235 147 129 117 114 99 84 73 69 65 68 64 52 47 33 21 12 2 3 359 355 356 358 359 360 358 343
168 169 168 160 163 168 172 173 167 163 174 181 168 159 165 208 179 184 165 146 137 122 110 94 81 67 67 70 58 37 29 18 11 7 11 11 6 4 4 8 8 4 357
165 165 168 164 166 170 173 175 167 165 165 175 187 184 167 139 145 189 222 164 141 130 126 111 102 84 66 65 61 46 33 24 26 24 20 24 24 19 18 22 21 17 12
160 160 168 168 166 169 180 178 171 173 172 173 177 175 187 186 185 171 208 198 169 148 129 115 110 100 79 69 60 45 37 31 28 25 31 35 32 25 23 22 20 17 13
162 172 179 179 173 173 178 183 175 177 183 176 178 175 169 175 195 190 200 195 186 176 128 109 103 100 89 78 61 48 43 40 31 32 42 41 33 28 24 20 18 15 12
174 181 179 179 178 177 174 171 170 177 181 176 179 183 182 179 156 153 165 183 168 159 140 125 115 111 101 93 73 48 52 48 41 41 42 43 39 32 25 18 15 15 12
185 177 176 176 177 175 172 170 167 175 176 179 180 176 163 159 146 144 159 158 169 216 187 165 118 116 104 95 78 54 61 62 56 54 53 49 44 36 30 22 16 13 11
174 173 178 179 179 177 174 170 172 175 171 176 176 172 164 163 147 144 148 156 166 195 214 155 133 125 117 103 93 64 68 77 74 72 64 55 45 36 32 26 18 14 12
173 176 179 177 178 179 173 172 170 172 173 169 165 164 168 162 150 147 156 163 158 168 195 137 128 138 123 117 114 87 85 86 84 82 69 59 46 39 35 30 24 19 16
175 182 180 180 182 179 179 179 180 176 178 172 169 172 178 162 155 155 148 155 164 156 179 147 98 118 125 134 127 97 90 76 88 88 75 61 50 44 35 32 27 22 20
178 179 175 182 185 184 183 183 182 180 182 184 181 177 176 166 162 158 155 171 175 171 167 179 157 142 143 151 147 145 122 101 107 102 90 73 62 50 38 35 31 26 25
181 180 180 187 189 189 186 185 183 179 184 186 181 178 174 167 172 168 169 174 171 166 157 163 165 143 139 149 141 155 173 138 124 134 130 105 78 60 50 43 38 33 29
193 193 195 194 191 189 185 182 180 179 180 179 176 173 174 176 177 173 176 175 166 166 167 171 173 163 157 154 153 179 202 204 196 174 162 134 121 80 64 56 47 39 36
218 204 199 195 188 188 189 184 180 180 178 174 170 169 170 169 169 171 170 171 169 172 177 182 180 167 171 167 188 184 188 176 195 179 165 219 188 86 26 53 51 44 45
234 221 213 204 200 202 196 194 185 178 176 172 170 164 160 161 167 175 173 172 172 174 181 181 184 188 196 190 174 168 158 149 220 226 153 227 166 153 132 85 52 54 56
257 243 231 217 219 214 202 200 193 177 175 175 173 170 175 181 174 167 178 180 185 190 185 172 185 196 192 185 164 165 172 173 194 184 136 208 193 177 176 116 99 79 75
267 253 241 228 227 221 208 203 196 182 176 179 179 179 178 174 175 167 165 167 177 184 182 173 177 187 167 153 157 163 162 133 93 100 132 173 195 187 167 136 158 129 102
272 257 247 233 229 228 213 205 196 183 185 188 187 185 180 177 186 181 168 168 174 177 172 157 146 143 140 145 145 129 138 138 164 211 182 156 168 143 158 189 194 175 154
271 257 251 241 229 227 217 210 199 191 194 192 191 194 194 188 189 187 173 170 179 182 164 159 155 149 143 155 158 156 159 157 155 189 196 156 149 125 207 259 189 207 285